Flag for Germany Weather past 2 weeks in Helmstedt, Lower Saxony, Germany

Now
63 °F

Passing clouds.


Feels Like: 63 °F
Forecast: 58 / 79 °F
Wind: 3 mph from North

Location: Braunschweig

Current Time: Jul 31, 2014 at 7:58:52 AM

Latest Report: Jul 31, 2014 at 7:20 AM


Visibility: N/A

Pressure: 29.98 "Hg

Humidity: 94%

Dew point: 61 °F

Location of HelmstedtLocation

Historic Weather in Helmstedt — Graph

°F

Helmstedt temperature yesterday

Maximum temperature yesterday: 72 °F (at 5:50 PM)
Minimum temperature yesterday: 66 °F (at 6:50 AM)
Average temperature yesterday: 68 °F

Past Weeks' High & Low Weather Summary

 TemperatureHumidityPressure
High93 °F (Jul 20, 1:50 PM)100% (Jul 16, 6:50 AM)30.21 "Hg (Jul 16, 6:50 AM)
Low55 °F (Jul 17, 5:50 AM)24% (Jul 19, 4:50 PM)29.74 "Hg (Jul 29, 4:50 PM)
Average74 °F67%29.98 "Hg
* Reported Jul 16 6:50 AM — Jul 31 6:50 AM, Helmstedt, Weather by CustomWeather, © 2014

Note: Actual official high and low records may vary slightly from our data, if they occured in-between our weather recording intervals... More about our weather records

Advertising

Helmstedt weather history for previous 24 hours

 ConditionsComfort  
Time TempWeatherWind HumidityBarometerVisibility
6:50 AM
Jul 31
61 °FScattered clouds.2 mph100%29.98 "HgN/A
9:50 PM
Jul 30
66 °FPassing clouds.5 mph73%29.89 "HgN/A
9:20 PM68 °FSunny.6 mph69%29.89 "Hg10 mi
8:50 PM70 °FSunny.7 mph64%29.89 "Hg10 mi
8:20 PM72 °FPassing clouds.7 mph69%29.86 "HgN/A
7:50 PM70 °FPartly sunny.7 mph83%29.86 "HgN/A
7:20 PM70 °FOvercast.5 mph83%29.86 "HgN/A
6:50 PM70 °FPartly sunny.6 mph83%29.83 "HgN/A
6:20 PM70 °FScattered clouds.8 mph78%29.83 "HgN/A
5:50 PM72 °FScattered clouds.12 mph73%29.83 "HgN/A
5:20 PM70 °FBroken clouds.8 mph88%29.83 "HgN/A
4:50 PM68 °FOvercast.5 mph100%29.83 "HgN/A
4:20 PM68 °FPassing clouds.7 mph100%29.83 "HgN/A
3:20 PM66 °FMostly cloudy.7 mph100%29.83 "HgN/A
2:20 PM66 °FPartly sunny.8 mph100%29.83 "HgN/A
1:50 PM68 °FMostly cloudy.9 mph100%29.83 "Hg6 mi
1:20 PM66 °FLight rain. Mostly cloudy.8 mph100%29.83 "Hg4 mi
12:50 PM66 °FLight rain. Mostly cloudy.8 mph100%29.80 "Hg4 mi
12:20 PMN/ADrizzle.7 mphN/AN/A4 mi
11:50 AM66 °FDrizzle. Fog.7 mph100%29.80 "Hg3 mi
11:20 AM66 °FDrizzle. Fog.8 mph100%29.80 "Hg3 mi
10:50 AM66 °FDrizzle. Fog.7 mph100%29.80 "Hg3 mi
10:20 AM66 °FRain. Partly sunny.7 mph100%29.77 "Hg3 mi
9:50 AM66 °FLight rain. Fog.6 mph100%29.77 "Hg3 mi
9:20 AM66 °FLight rain. Low clouds.6 mph100%29.77 "Hg4 mi
8:50 AM66 °FDrizzle. Fog.7 mph100%29.77 "Hg3 mi
8:20 AM66 °FLight rain. Fog.6 mph100%29.74 "Hg2 mi
7:50 AM66 °FLight rain. Fog.8 mph100%29.74 "Hg2 mi
7:20 AM66 °FLight rain. Fog.7 mph100%29.74 "Hg2 mi
Weather by CustomWeather, © 2014

See weather overviewHow to use our weather pages